Weather History for Osceola Municipal, IA

Change the Weather History Date:

Sunday, January 20, 2013

  Actual Average (KLWD) Record (KLWD)
Temperature  
Mean Temperature 15 °F 24 °F  
Max Temperature 21 °F 33 °F 52 °F (1964)
Min Temperature 9 °F 15 °F -19 °F (1985)
Degree Days  
Heating Degree Days 50 41  
Month to date heating degree days 820  
Since 1 July heating degree days 3249  
Cooling Degree Days 0 0  
Month to date cooling degree days 0  
Year to date cooling degree days 0  
Moisture  
Dew Point 7 °F    
Average Humidity 71    
Maximum Humidity 86    
Minimum Humidity 54    
Precipitation  
Precipitation 0.00 in 0.02 in 0.39 in (1993)
Month to date precipitation 0.41  
Sea Level Pressure  
Sea Level Pressure 30.33 in    
Wind  
Wind Speed 10 mph (NW)    
Max Wind Speed 16 mph    
Max Gust Speed 23 mph    
Visibility 9 miles    
Events Snow    
T = Trace of Precipitation, MM = Missing Value Source: NWS Daily Summary

Daily Weather History Graph

Daily Weather History Graph

Search for Another Location

Airport:

Trip Planner

Search our weather history database for the weather conditions in past years. The results will help you decide how hot, cold, wet, or windy it might be!

Date:

Astronomy

Jan. 20, 2013 Rise Set
Actual Time 7:34 AM CST 5:17 PM CST
Civil Twilight 7:04 AM CST 5:47 PM CST
Nautical Twilight 6:31 AM CST 6:20 PM CST
Astronomical Twilight 5:58 AM CST 6:53 PM CST
Moon 12:19 PM CST (1/20) 2:07 AM CST (1/20)
Length of Visible Light 10h 42m
Length of Day
9h 42m
Waxing Gibbous, 66% of the Moon is Illuminated
Jan 20
Waxing Gibbous
Jan 26
Full
Feb 3
Last Quarter
Feb 10
New
Feb 17
First Quarter

Hourly Weather History & Observations

Time (CST) Temp. Windchill Dew Point Humidity Pressure Visibility Wind Dir Wind Speed Gust Speed Precip Events Conditions
12:15 AM 21.0 °F 7.1 °F 11.1 °F 66% 30.26 in 10.0 mi NW 16.1 mph 23.0 mph N/A   Clear
12:35 AM 20.1 °F 6.4 °F 10.2 °F 66% 30.27 in 10.0 mi NNW 15.0 mph - N/A   Clear
12:55 AM 19.8 °F 8.3 °F 9.1 °F 63% 30.28 in 10.0 mi NW 10.4 mph - N/A   Clear
1:15 AM 19.0 °F 6.1 °F 8.8 °F 64% 30.29 in 10.0 mi NW 12.7 mph - N/A   Clear
1:35 AM 18.5 °F 6.1 °F 7.7 °F 63% 30.30 in 10.0 mi NW 11.5 mph - N/A   Clear
2:15 AM 17.6 °F 5.0 °F 7.2 °F 64% 30.32 in 10.0 mi NW 11.5 mph - N/A   Clear
2:35 AM 17.2 °F 4.5 °F 7.3 °F 65% 30.33 in 10.0 mi NW 11.5 mph - N/A   Clear
2:55 AM 17.1 °F 5.8 °F 7.5 °F 66% 30.32 in 10.0 mi NW 9.2 mph - N/A   Clear
3:15 AM 16.7 °F 3.2 °F 7.5 °F 67% 30.32 in 10.0 mi NW 12.7 mph - N/A   Clear
3:35 AM 16.5 °F 4.3 °F 6.6 °F 65% 30.31 in 10.0 mi NNW 10.4 mph - N/A   Clear
3:55 AM 16.2 °F 3.2 °F 6.6 °F 66% 30.29 in 10.0 mi NNW 11.5 mph - N/A   Clear
4:15 AM 15.8 °F 3.4 °F 5.2 °F 63% 30.29 in 10.0 mi NNW 10.4 mph 17.3 mph N/A   Clear
4:35 AM 15.4 °F 2.3 °F 5.5 °F 65% 30.29 in 10.0 mi NNW 11.5 mph - N/A   Clear
4:55 AM 14.9 °F 5.0 °F 5.5 °F 66% 30.30 in 10.0 mi NNW 6.9 mph - N/A   Clear
5:15 AM 14.9 °F 3.1 °F 5.5 °F 66% 30.30 in 10.0 mi NNW 9.2 mph - N/A   Clear
5:35 AM 14.9 °F 4.0 °F 6.1 °F 68% 30.30 in 10.0 mi NNW 8.1 mph - N/A   Clear
5:55 AM 14.9 °F 3.1 °F 6.1 °F 68% 30.30 in 10.0 mi North 9.2 mph - N/A   Clear
6:15 AM 14.9 °F 3.1 °F 6.1 °F 68% 30.31 in 10.0 mi North 9.2 mph - N/A   Clear
6:35 AM 14.5 °F 4.6 °F 6.1 °F 69% 30.32 in 10.0 mi NNW 6.9 mph - N/A   Clear
7:15 AM 13.8 °F 2.7 °F 4.1 °F 65% 30.32 in 10.0 mi NNW 8.1 mph - N/A   Clear
7:35 AM 13.5 °F 4.4 °F 4.5 °F 67% 30.33 in 10.0 mi NNW 5.8 mph - N/A   Clear
7:55 AM 13.1 °F 2.8 °F 4.6 °F 69% 30.34 in 10.0 mi NNW 6.9 mph - N/A   Clear
8:15 AM 14.2 °F 4.1 °F 5.0 °F 67% 30.33 in 10.0 mi NNW 6.9 mph - N/A   Mostly Cloudy
8:35 AM 14.5 °F 4.6 °F 4.8 °F 65% 30.34 in 10.0 mi NNW 6.9 mph - N/A   Overcast
8:55 AM 14.9 °F 3.1 °F 5.2 °F 65% 30.34 in 10.0 mi NNW 9.2 mph - N/A   Scattered Clouds
9:15 AM 14.9 °F 5.0 °F 4.8 °F 64% 30.35 in 10.0 mi NW 6.9 mph - N/A   Clear
9:35 AM 16.5 °F 6.9 °F 5.4 °F 62% 30.35 in 10.0 mi NNW 6.9 mph - N/A   Clear
9:55 AM 16.5 °F 5.1 °F 5.4 °F 62% 30.37 in 10.0 mi NNW 9.2 mph - N/A   Clear
10:15 AM 17.2 °F 5.2 °F 5.0 °F 59% 30.38 in 10.0 mi North 10.4 mph - N/A   Clear
10:35 AM 18.0 °F 8.7 °F 5.0 °F 57% 30.37 in 10.0 mi NNW 6.9 mph - N/A   Scattered Clouds
10:55 AM 19.2 °F 7.0 °F 6.3 °F 57% 30.37 in 10.0 mi North 11.5 mph - N/A   Mostly Cloudy
11:15 AM 18.5 °F 10.4 °F 5.2 °F 56% 30.37 in 10.0 mi North 5.8 mph - N/A   Overcast
11:35 AM 18.5 °F 11.7 °F 4.6 °F 55% 30.36 in 10.0 mi North 4.6 mph - N/A   Overcast
12:15 PM 18.7 °F 9.5 °F 4.3 °F 54% 30.35 in 10.0 mi NW 6.9 mph - N/A   Overcast
12:35 PM 18.5 °F 8.4 °F 4.5 °F 54% 30.35 in 10.0 mi North 8.1 mph - N/A   Overcast
12:55 PM 19.0 °F 10.0 °F 5.4 °F 55% 30.35 in 10.0 mi NNW 6.9 mph - N/A   Overcast
1:15 PM 18.5 °F 9.3 °F 7.3 °F 62% 30.35 in 10.0 mi NW 6.9 mph - N/A   Overcast
1:35 PM 18.1 °F 7.9 °F 9.0 °F 67% 30.35 in 5.0 mi NNW 8.1 mph - N/A Snow Light Snow
1:55 PM 18.0 °F 7.7 °F 10.4 °F 72% 30.35 in 4.0 mi NW 8.1 mph - N/A Snow Light Snow
2:15 PM 17.6 °F 7.3 °F 12.0 °F 79% 30.34 in 2.5 mi NNW 8.1 mph - N/A Snow Light Snow
2:35 PM 18.0 °F 8.7 °F 12.6 °F 79% 30.35 in 3.0 mi NNW 6.9 mph - N/A Snow Light Snow
2:55 PM 17.8 °F 9.6 °F 12.6 °F 80% 30.34 in 2.5 mi NW 5.8 mph - N/A Snow Light Snow
3:15 PM 18.0 °F 7.7 °F 13.1 °F 81% 30.34 in 2.5 mi NNW 8.1 mph - N/A Snow Light Snow
3:35 PM 18.1 °F 6.3 °F 13.5 °F 82% 30.34 in 2.0 mi NW 10.4 mph - N/A Snow Light Snow
3:55 PM 18.0 °F 6.1 °F 12.7 °F 80% 30.34 in 3.0 mi NNW 10.4 mph - N/A Snow Light Snow
4:15 PM 17.1 °F 5.0 °F 11.3 °F 78% 30.35 in 7.0 mi NW 10.4 mph - N/A Snow Light Snow
4:35 PM 16.7 °F 6.2 °F 11.3 °F 79% 30.35 in 10.0 mi NW 8.1 mph - N/A Snow Light Snow
4:55 PM 16.5 °F 8.1 °F 11.3 °F 80% 30.35 in 5.0 mi NW 5.8 mph - N/A Snow Light Snow
5:15 PM 16.5 °F 6.0 °F 10.6 °F 77% 30.35 in 10.0 mi NW 8.1 mph - N/A Snow Light Snow
5:35 PM 16.2 °F 5.5 °F 10.4 °F 78% 30.35 in 10.0 mi NW 8.1 mph - N/A Snow Light Snow
5:55 PM 15.8 °F 7.2 °F 10.0 °F 78% 30.34 in 10.0 mi NW 5.8 mph - N/A Snow Light Snow
6:15 PM 14.7 °F 3.8 °F 9.0 °F 78% 30.35 in 10.0 mi NW 8.1 mph - N/A   Mostly Cloudy
6:35 PM 14.0 °F 5.1 °F 8.4 °F 78% 30.35 in 10.0 mi NW 5.8 mph - N/A   Scattered Clouds
6:55 PM 12.2 °F 4.3 °F 7.5 °F 82% 30.35 in 10.0 mi WNW 4.6 mph - N/A   Clear
7:15 PM 10.8 °F 1.2 °F 6.6 °F 83% 30.35 in 10.0 mi WNW 5.8 mph - N/A   Scattered Clouds
7:35 PM 10.2 °F -0.6 °F 6.8 °F 86% 30.35 in 10.0 mi WNW 6.9 mph - N/A   Scattered Clouds
7:55 PM 10.4 °F 2.2 °F 6.6 °F 85% 30.35 in 10.0 mi West 4.6 mph - N/A   Clear
8:15 PM 10.0 °F 0.4 °F 6.6 °F 86% 30.35 in 10.0 mi West 5.8 mph - N/A   Clear
8:35 PM 10.4 °F -0.4 °F 6.8 °F 85% 30.34 in 10.0 mi West 6.9 mph - N/A   Clear
8:55 PM 10.9 °F 2.9 °F 6.8 °F 83% 30.32 in 10.0 mi WSW 4.6 mph - N/A   Mostly Cloudy
9:15 PM 9.9 °F -1.1 °F 5.9 °F 84% 30.34 in 10.0 mi West 6.9 mph - N/A   Scattered Clouds
9:35 PM 10.0 °F -2.9 °F 5.9 °F 83% 30.34 in 10.0 mi WNW 9.2 mph - N/A   Scattered Clouds
9:55 PM 12.0 °F -3.4 °F 7.5 °F 82% 30.34 in 10.0 mi WNW 13.8 mph 19.6 mph N/A   Mostly Cloudy
10:15 PM 12.2 °F -3.1 °F 6.4 °F 78% 30.35 in 10.0 mi WNW 13.8 mph 20.7 mph N/A   Scattered Clouds
10:35 PM 11.5 °F -4.7 °F 5.7 °F 78% 30.36 in 10.0 mi WNW 15.0 mph 21.9 mph N/A   Scattered Clouds
10:55 PM 11.3 °F -3.6 °F 5.0 °F 76% 30.36 in 10.0 mi WNW 12.7 mph 20.7 mph N/A   Scattered Clouds
11:15 PM 11.8 °F -0.7 °F 5.5 °F 76% 30.34 in 10.0 mi WNW 9.2 mph - N/A   Mostly Cloudy
11:35 PM 12.0 °F -1.3 °F 5.5 °F 75% 30.35 in 10.0 mi WNW 10.4 mph - N/A   Overcast
11:55 PM 12.4 °F -0.8 °F 5.9 °F 75% 30.34 in 10.0 mi WNW 10.4 mph - N/A   Overcast